Location: Unspecified
(56.5167°N, 0.0000°E)
Time: 06:13:18
(UTC+02:00)

ISS - Visible Passes

Search period start: 28 July 2014 00:00
Search period end: 07 August 2014 00:00
Orbit: 411 x 420 km, 51.6° (Epoch: 27 July)

Date Brightness Start Highest point End Pass type
(mag) Time Alt. Az. Time Alt. Az. Time Alt. Az.
28 Jul -1.7 02:47:09 20° SSE 02:47:09 20° SSE 02:49:25 10° ESE visible
28 Jul -2.5 04:20:00 11° WSW 04:23:01 35° S 04:26:07 10° ESE visible
29 Jul -0.9 01:59:57 12° ESE 01:59:57 12° ESE 02:00:24 10° ESE visible
29 Jul -2.5 03:32:49 22° SW 03:34:19 33° S 03:37:23 10° ESE visible
30 Jul -2.3 02:45:38 29° SSE 02:45:38 29° SSE 02:48:35 10° ESE visible
30 Jul -2.6 04:18:48 10° WSW 04:21:54 35° S 04:25:00 10° ESE visible
31 Jul -1.4 01:58:29 18° ESE 01:58:29 18° ESE 01:59:45 10° ESE visible
31 Jul -2.7 03:31:21 20° SW 03:33:11 36° S 03:36:19 10° ESE visible
31 Jul -2.1 05:06:37 10° WSW 05:09:25 25° SSW 05:12:14 10° SE visible
01 Aug -2.7 02:44:18 34° S 02:44:28 35° S 02:47:34 10° ESE visible
01 Aug -2.4 04:17:47 10° WSW 04:20:45 29° SSW 04:23:43 10° SE visible
02 Aug -1.5 01:57:28 20° ESE 01:57:28 20° ESE 01:58:48 10° ESE visible
02 Aug -2.6 03:30:22 20° WSW 03:32:02 33° S 03:35:06 10° SE visible
02 Aug -1.6 05:05:55 10° WSW 05:08:08 17° SSW 05:10:20 10° SSE visible
03 Aug -2.2 02:44:20 28° SE 02:44:20 28° SE 02:46:25 10° ESE visible
03 Aug -2.0 04:17:20 12° WSW 04:19:30 21° SSW 04:22:06 10° SSE visible
04 Aug -2.1 00:15:38 10° SSW 00:18:07 23° SSE 00:18:07 23° SSE visible
04 Aug -0.9 03:33:27 11° SE 03:33:27 11° SE 03:33:40 10° SE visible
04 Aug -1.8 23:27:17 10° SSW 23:29:42 19° SSE 23:32:08 10° ESE visible
05 Aug -2.4 01:02:46 10° WSW 01:05:13 31° SSW 01:05:13 31° SSW visible
06 Aug -2.5 00:14:06 10° SW 00:17:06 31° SSE 00:18:26 23° SE visible
06 Aug -1.3 01:50:19 10° WSW 01:51:18 17° WSW 01:51:18 17° WSW visible
06 Aug -2.3 23:25:30 10° SW 23:28:23 27° SSE 23:31:16 10° ESE visible
